默认 日期 大小 文件数 浏览量 最新下载 xml
- angel磁力链接相关资源由用户搜索指令自动获取,结果来源于网络,本站不存储任何资料,亦不承担任何责任,请于24小时内删除,搜索到86597个磁力,显示前4000条数据,用时8ms。
    {"Angel Magic E10.mkv": 378583609}
创建时间: 2018-10-31 18:37:28 大小:361.05 MB 文件数量:1 热度:11 最近下载:2025-02-09 01:55:02
    {"RARBG.com.txt": 34, "cnt.vt.130724.the.loving.couple.mp4": 436066169, "cnt.vt.130724.the.loving.couple.nfo": 2141}
创建时间: 2018-10-31 18:41:55 大小:415.87 MB 文件数量:3 热度:43 最近下载:2025-08-02 05:12:03
    ... 更新].txt": 651, "Sky Angel Blue Vol.71 (SKYHD-071 ... ) Akari Asagiri.jpg": 1083448, "Sky Angel Blue Vol.71 (SKYHD-071 ...
创建时间: 2018-10-31 18:44:59 大小:1.34 GB 文件数量:7 热度:210 最近下载:2025-09-03 00:25:02
    {"1.jpg": 359064, "front.jpg": 41469, "apx-sky327.mp4": 1226904630, "apx-sky327.nfo": 5648}
创建时间: 2018-10-31 18:57:55 大小:1.14 GB 文件数量:4 热度:31 最近下载:2025-09-05 09:28:04
    {"poster.jpg": 93738, "screens.jpg": 100653, "RARBG.com.txt": 33, "angel.wicky.and.alex.black.busty.czech.chicks.titty.squeezing.and.pussy.9923d1.360.1500.mp4": 419924336}
创建时间: 2018-10-31 19:15:26 大小:400.66 MB 文件数量:4 热度:120 最近下载:2025-08-05 06:50:02
    {"Torrent Downloaded From ExtraTorrent.cc.txt": 352, "Watch movies online for free at www.BlueDotMovies.com .txt": 0, "Karina Grand & Angel Karyna double anal (DAP) with 3 guys SZ1124.mp4": 1801381757}
创建时间: 2018-10-31 19:22:10 大小:1.68 GB 文件数量:3 热度:88 最近下载:2025-09-20 14:18:03
    {"RARBG.txt": 30, "TeenFidelity.E331.Angel.Emily.Paris.Bound.XXX.SD.MP4-KLEENEX.mp4": 347883570}
创建时间: 2018-10-31 19:38:41 大小:331.77 MB 文件数量:2 热度:47 最近下载:2025-09-15 15:54:03
    {"MP3": {"01. Angelic Angel.mp3": 12221989, "02. Hello,星を数えて.mp3": 11355843, "03. Angelic Angel (Off Vocal).mp3": 12190666, "04. Hello,星を数えて (Off Vocal).mp3": 11254512}, "Cover.jpg": 232538}
创建时间: 2018-10-31 20:06:59 大小:45.07 MB 文件数量:5 热度:29 最近下载:2025-04-15 16:33:02
    {"RARBG.txt": 30, "fistertwister.18.08.23.angel.wicky.and.victoria.pure.mp4": 1244867140, "fistertwister.18.08.23.angel.wicky.and.victoria.pure.nfo": 5210}
创建时间: 2018-10-31 20:38:16 大小:1.16 GB 文件数量:3 热度:145 最近下载:2025-10-12 00:35:03
    {"50986_01_hd.mp4": 596605515, "50986_02_hd.mp4": 1017792514, "50986_03_hd.mp4": 433612805, "50986_04_hd.mp4": 394989524, "50986_05_hd.mp4": 353517776}
创建时间: 2018-10-31 20:42:15 大小:2.6 GB 文件数量:5 热度:32 最近下载:2025-10-04 20:16:08
    ... scene1.avi": 271806100, "teen-angel-in-paradise-scene2.avi": ... 225564488, "teen-angel-in-paradise-scene3.avi": ... 114804266, "teen-angel-in-paradise-scene4.avi": ... scene5.avi": 247493706, "teen-angel-in-paradise-scene6.avi": 256318212}
创建时间: 2018-10-31 20:46:25 大小:1.23 GB 文件数量:6 热度:12 最近下载:2023-10-30 18:33:52
    ... ) [8FC4B94B].mkv": 17565260, "[RH] Angel Blade - Storyboards 01 (Uncensored) [47CF96D8 ... ].mkv": 13126028, "[RH] Angel Blade - Storyboards 02 (Uncensored) [F50D354F ... ].mkv": 20320896, "[RH] Angel Blade - Storyboards 03 (Uncensored) [605A7276 ...
创建时间: 2018-10-31 20:52:00 大小:1.45 GB 文件数量:11 热度:29 最近下载:2025-06-25 12:45:01
创建时间: 2018-10-31 20:53:03 大小:223.85 MB 文件数量:1 热度:20 最近下载:2025-09-03 11:42:02
    ... .mp3": 18998834, "Brent Weeks - Night Angel 3 - Beyond the Shadows 1 ...
创建时间: 2018-10-31 20:54:45 大小:431.02 MB 文件数量:9 热度:13 最近下载:2024-12-22 08:33:01
    {"RARBG.com.txt": 34, "babes.14.06.14.amirah.adara.and.angel.snow.lessons.mp4": 1662125428, "babes.14.06.14.amirah.adara.and.angel.snow.lessons.nfo": 6984}
创建时间: 2018-10-31 20:55:32 大小:1.55 GB 文件数量:3 热度:52 最近下载:2025-07-20 00:29:02
    {"Angel O Demonio - Temp.1 [HDTV][Cap.107][Spanish][www.pctestrenos.com].avi": 700153856}
创建时间: 2018-10-31 20:57:29 大小:667.72 MB 文件数量:1 热度:11 最近下载:2025-01-08 12:08:03
    ... )鈴木あきえ-Angel Kiss(Xvid+denglubbs+罗曼 ... )鈴木あきえ-Angel Kiss(Xvid+denglubbs+罗曼 ...
创建时间: 2018-10-31 20:58:20 大小:875.5 MB 文件数量:9 热度:55 最近下载:2025-08-05 19:33:01
    ... -skyhd-105-honami-uehara-sky-angel-blue-vol-105.mp4": 161555006 ...
创建时间: 2018-10-31 20:58:29 大小:154.27 MB 文件数量:7 热度:55 最近下载:2025-09-14 08:58:03
    {"1.jpg": 319021, "pussy.whipped.2.xxx.dvdrip.x264-chikani.mp4": 1549231567, "pussy.whipped.2.xxx.dvdrip.x264-chikani.mp4_thumbs_[2015.08.29_07.49.09].jpg": 290350}
创建时间: 2018-10-31 20:58:41 大小:1.44 GB 文件数量:3 热度:36 最近下载:2025-06-24 00:34:01
    {"Black In White Pussy (Elegant Angel)": {"anette.mp4": 514785371, "1777572h.jpg": ...
创建时间: 2018-10-31 20:59:03 大小:2.69 GB 文件数量:18 热度:63 最近下载:2025-09-24 12:48:03